Location: Burbank
(38.7788°N, 114.0429°W)
Time: 01:38:17
(UTC+00:00)

Courier 1B Rocket - Pass Details

Date: 15 May 2026
Orbit: 920 x 1201 km, 28.2° (Epoch: 11 June)

Event Time Altitude Azimuth Distance (km) Brightness Sun altitude
Rises 16:37:56 0° 244° (WSW) 3,548 7.6 47.5°
Reaches altitude 10° 16:40:47 10° 235° (SW) 2,618 7.1 48.0°
Maximum altitude 16:46:13 31° 174° (S) 1,587 6.8 49.0°
Drops below altitude 10° 16:51:53 10° 115° (ESE) 2,732 8.3 50.1°
Sets 16:54:55 0° 105° (ESE) 3,726 8.7 50.7°
